Whitefield, NH

5:11 PM EDT on May 28, 2017 (GMT -0400)
Mount Washington Regional

Weather History for KHIE - January, 2013

Change the Weather History Date:

Sunday, January 20, 2013

  Actual Average Record
Temperature  
Mean Temperature 30 °F -  
Max Temperature 44 °F 20 °F 44 °F (2013)
Min Temperature 12 °F 0 °F -16 °F (2000)
Degree Days  
Heating Degree Days 36    
Moisture  
Dew Point 19 °F    
Average Humidity 71    
Maximum Humidity 93    
Minimum Humidity 43    
Precipitation  
Precipitation 0.01 in - - ()
Sea Level Pressure  
Sea Level Pressure 29.61 in    
Wind  
Wind Speed 6 mph (West)    
Max Wind Speed 21 mph    
Max Gust Speed 39 mph    
Visibility 8 miles    
Events Fog , Snow    
Averages and records for this station are not official NWS values.
T = Trace of Precipitation, MM = Missing Value Source: NWS Daily Summary

Daily Weather History Graph

Daily Weather History Graph

Search for Another Location

Airport or City:

Trip Planner

Search our weather history database for the weather conditions in past years. The results will help you decide how hot, cold, wet, or windy it might be!

Date:

Astronomy

Jan. 20, 2013 Rise Set
Actual Time 7:15 AM EST 4:39 PM EST
Civil Twilight 6:43 AM EST 5:11 PM EST
Nautical Twilight 6:08 AM EST 5:47 PM EST
Astronomical Twilight 5:33 AM EST 6:21 PM EST
Moon 11:39 AM EST (1/20) 1:43 AM EST (1/20)
Length of Visible Light 10h 27m
Length of Day
9h 24m
Waxing Gibbous, 66% of the Moon is Illuminated
Jan 20
Waxing Gibbous
Jan 26
Full
Feb 3
Last Quarter
Feb 10
New
Feb 17
First Quarter

Hourly Weather History & Observations

Time (EST) Temp. Windchill Dew Point Humidity Pressure Visibility Wind Dir Wind Speed Gust Speed Precip Events Conditions
12:52 AM 27.0 °F - 24.1 °F 89% 29.75 in 10.0 mi Calm Calm - N/A   Overcast
1:52 AM 28.0 °F 24.2 °F 24.1 °F 85% 29.73 in 10.0 mi WNW 3.5 mph - N/A   Overcast
2:52 AM 28.0 °F - 25.0 °F 88% 29.69 in 10.0 mi Calm Calm - N/A   Overcast
3:52 AM 25.0 °F - 21.9 °F 88% 29.66 in 10.0 mi Calm Calm - N/A   Overcast
4:45 AM 21.2 °F - 19.4 °F 93% 29.55 in 1.8 mi Calm Calm - N/A   Clear
4:52 AM 21.9 °F - 19.9 °F 92% 29.60 in 2.5 mi Calm Calm - N/A   Clear
4:58 AM 21.2 °F - 19.4 °F 93% 29.54 in 1.0 mi Calm Calm - N/A   Mist
5:06 AM 19.4 °F - 17.6 °F 93% 29.53 in 0.5 mi Calm Calm - N/A Fog Light Freezing Fog
5:52 AM 19.0 °F - 16.0 °F 88% 29.54 in 1.5 mi Calm Calm - N/A   Partly Cloudy
5:55 AM 19.4 °F - 15.8 °F 86% 29.48 in 3.0 mi Calm Calm - N/A   Partly Cloudy
6:52 AM 33.1 °F 26.9 °F 24.1 °F 70% 29.48 in 10.0 mi South 6.9 mph - N/A   Clear
7:52 AM 32.0 °F 28.7 °F 21.9 °F 66% 29.47 in 10.0 mi Variable 3.5 mph - N/A   Clear
8:52 AM 42.1 °F 35.7 °F 25.0 °F 51% 29.43 in 10.0 mi SSW 11.5 mph 21.9 mph N/A   Clear
9:52 AM 44.1 °F 37.7 °F 25.0 °F 47% 29.43 in 10.0 mi SW 12.7 mph 29.9 mph N/A   Overcast
10:52 AM 37.9 °F 29.2 °F 28.9 °F 70% 29.49 in 10.0 mi WSW 15.0 mph 29.9 mph 0.00 in Snow Light Snow
11:12 AM 37.4 °F 29.3 °F 30.2 °F 75% 29.44 in 10.0 mi SW 12.7 mph 20.7 mph 0.00 in   Overcast
11:52 AM 37.9 °F 31.5 °F 28.0 °F 68% 29.45 in 10.0 mi SW 9.2 mph 17.3 mph 0.00 in   Overcast
12:42 PM 35.6 °F 24.5 °F 28.4 °F 75% 29.43 in 1.5 mi West 20.7 mph 39.1 mph 0.00 in Snow Light Snow
12:52 PM 36.0 °F 26.3 °F 28.9 °F 76% 29.47 in 2.5 mi WSW 16.1 mph 26.5 mph 0.00 in Snow Light Snow
12:59 PM 35.6 °F 26.2 °F 26.6 °F 70% 29.44 in 9.0 mi WSW 15.0 mph 27.6 mph 0.00 in   Scattered Clouds
1:52 PM 36.0 °F 26.7 °F 21.9 °F 57% 29.50 in 10.0 mi West 15.0 mph 27.6 mph 0.01 in   Mostly Cloudy
2:52 PM 36.0 °F 26.0 °F 15.1 °F 43% 29.54 in 10.0 mi WSW 17.3 mph 29.9 mph N/A   Overcast
3:52 PM 33.1 °F 23.0 °F 16.0 °F 50% 29.60 in 10.0 mi West 15.0 mph 27.6 mph N/A   Overcast
4:52 PM 30.0 °F 18.3 °F 15.1 °F 54% 29.66 in 10.0 mi West 17.3 mph 33.4 mph N/A   Overcast
6:52 PM 26.1 °F 13.1 °F 8.1 °F 47% 29.72 in 10.0 mi West 17.3 mph 29.9 mph N/A   Mostly Cloudy
7:37 PM 23.0 °F 13.1 °F 15.8 °F 74% 29.71 in 2.5 mi West 9.2 mph 23.0 mph 0.00 in Snow Light Snow
7:52 PM 23.0 °F 12.4 °F 16.0 °F 74% 29.77 in 3.0 mi West 10.4 mph - 0.00 in Snow Light Snow
8:28 PM 21.2 °F 7.8 °F 12.2 °F 68% 29.75 in 9.0 mi WNW 15.0 mph 20.7 mph 0.00 in   Overcast
8:35 PM 19.4 °F 7.9 °F 12.2 °F 74% 29.75 in 10.0 mi WNW 10.4 mph - 0.00 in   Overcast
8:52 PM 19.9 °F 5.7 °F 10.9 °F 68% 29.79 in 10.0 mi West 16.1 mph 21.9 mph 0.00 in   Overcast
9:50 PM 17.6 °F 2.2 °F 6.8 °F 63% 29.79 in 10.0 mi WNW 17.3 mph 25.3 mph 0.00 in   Overcast
9:52 PM 17.1 °F 3.0 °F 7.0 °F 65% 29.83 in 10.0 mi WNW 13.8 mph 25.3 mph 0.00 in   Overcast
10:52 PM 15.1 °F -0.1 °F 3.0 °F 59% 29.86 in 10.0 mi WNW 15.0 mph 20.7 mph N/A   Overcast
11:52 PM 12.0 °F -2.7 °F 1.0 °F 61% 29.89 in 10.0 mi WNW 12.7 mph 19.6 mph N/A   Mostly Cloudy